This is the latest recevied weather packets stored in our database for station/object KB1WCR. If no packets are shown the sender has not sent any weather packets the latest 10 day(s).
| Time | Temp. | Humidity | Pressure | Rain* | Wind** | Luminosity | Snow |
|---|---|---|---|---|---|---|---|
| 1777824796 | 8.33° C | 79% | 1005 hPa | 0 mm | - | 240 W/m² | - |
| 1777824493 | 7.78° C | 79% | 1005 hPa | 0 mm | - | 191 W/m² | - |
| 1777824189 | 7.78° C | 78% | 1005 hPa | 0 mm | - | 163 W/m² | - |
| 1777823884 | 7.78° C | 80% | 1005 hPa | 0 mm | - | 249 W/m² | - |
| 1777823583 | 8.33° C | 80% | 1005 hPa | 0 mm | - | 199 W/m² | - |
| 1777823279 | 8.33° C | 82% | 1005 hPa | 0 mm | - | 287 W/m² | - |
| 1777822977 | 8.33° C | 80% | 1005 hPa | 0 mm | - | 345 W/m² | - |
| 1777822675 | 8.33° C | 81% | 1005.1 hPa | 0 mm | - | 394 W/m² | - |
| 1777822373 | 8.33° C | 80% | 1004.9 hPa | 0 mm | - | 379 W/m² | - |
| 1777822070 | 8.33° C | 81% | 1005 hPa | 0 mm | - | 525 W/m² | - |
| 1777821768 | 7.78° C | 83% | 1004.9 hPa | 0 mm | - | 487 W/m² | - |
| 1777821464 | 7.78° C | 84% | 1005 hPa | 0 mm | - | 412 W/m² | - |
| 1777821162 | 7.78° C | 84% | 1005.2 hPa | 0 mm | - | 311 W/m² | - |
| 1777820859 | 7.78° C | 84% | 1004.9 hPa | 0 mm | - | 286 W/m² | - |
| 1777820555 | 7.78° C | 84% | 1005.1 hPa | 0 mm | - | 357 W/m² | - |
| 1777820252 | 7.78° C | 85% | 1005.2 hPa | 0 mm | - | 375 W/m² | - |
| 1777819949 | 7.78° C | 86% | 1005.3 hPa | 0 mm | - | 316 W/m² | - |
| 1777819646 | 7.22° C | 86% | 1005.3 hPa | 0 mm | - | 291 W/m² | - |
| 1777819345 | 7.22° C | 88% | 1005.4 hPa | 0 mm | - | 304 W/m² | - |
| 1777819040 | 6.67° C | 89% | 1005.4 hPa | 0 mm | - | 263 W/m² | - |
| 1777818738 | 6.67° C | 88% | 1005.4 hPa | 0 mm | - | 221 W/m² | - |
| 1777818435 | 6.67° C | 90% | 1005.6 hPa | 0 mm | - | 206 W/m² | - |
| 1777818131 | 6.67° C | 89% | 1005.6 hPa | 0 mm | - | 247 W/m² | - |
| 1777817828 | 6.67° C | 91% | 1005.8 hPa | 0 mm | - | 221 W/m² | - |
| 1777817525 | 6.67° C | 91% | 1005.7 hPa | 0 mm | - | 238 W/m² | - |
* Rain latest hour (hover to see other rain measurements)
** Current wind speed in m/s (hover to see current wind gust speed)